Time,TemperatureF,DewpointF,PressureIn,WindDirection,WindDirectionDegrees,WindSpeedMPH,WindSpeedGustMPH,Humidity,HourlyPrecipIn,Conditions,Clouds,dailyrainin,SoftwareType,DateUTC
2013-03-30 00:03:00,32.8,26.4,29.98,West,266,0.0,1.0,77,0.00,,---,0.00,VWS V13.01,2013-03-30 04:03:00,
2013-03-30 01:03:00,32.1,26.3,29.98,West,266,0.0,0.0,79,0.00,,---,0.00,VWS V13.01,2013-03-30 05:03:00,
2013-03-30 02:03:00,31.7,26.5,29.98,West,265,0.0,0.0,81,0.00,,---,0.00,VWS V13.01,2013-03-30 06:03:00,
2013-03-30 03:03:00,31.1,26.3,29.97,West,265,0.0,0.0,82,0.00,,---,0.00,VWS V13.01,2013-03-30 07:03:00,
2013-03-30 04:03:00,30.3,26.1,29.98,West,266,0.0,0.0,84,0.00,,---,0.00,VWS V13.01,2013-03-30 08:03:00,
2013-03-30 05:03:00,30.3,26.1,29.98,West,266,0.0,0.0,84,0.00,,---,0.00,VWS V13.01,2013-03-30 09:03:00,
2013-03-30 06:03:00,29.2,25.5,29.99,West,266,0.0,0.0,86,0.00,,---,0.00,VWS V13.01,2013-03-30 10:03:00,
2013-03-30 07:03:00,30.8,27.4,30.00,West,265,0.0,1.0,87,0.00,,---,0.00,VWS V13.01,2013-03-30 11:03:00,
2013-03-30 08:03:00,35.5,30.9,30.01,West,266,0.0,0.0,83,0.00,,---,0.00,VWS V13.01,2013-03-30 12:03:00,
2013-03-30 09:03:00,41.2,32.5,30.01,West,266,0.0,2.0,71,0.00,,---,0.00,VWS V13.01,2013-03-30 13:03:00,
2013-03-30 10:03:00,46.2,31.4,30.01,NNW,330,0.0,6.0,56,0.00,,---,0.00,VWS V13.01,2013-03-30 14:03:00,
2013-03-30 11:03:00,51.6,31.0,30.00,SSW,211,0.0,5.0,45,0.00,,---,0.00,VWS V13.01,2013-03-30 15:03:00,
2013-03-30 12:03:00,54.3,26.5,29.98,SW,226,3.0,11.0,34,0.00,,---,0.00,VWS V13.01,2013-03-30 16:03:00,
2013-03-30 13:03:00,55.8,20.5,29.96,West,259,3.0,7.0,25,0.00,,---,0.00,VWS V13.01,2013-03-30 17:03:00,
2013-03-30 14:03:00,56.9,24.1,29.95,WSW,246,1.0,11.0,28,0.00,,---,0.00,VWS V13.01,2013-03-30 18:03:00,
2013-03-30 15:03:00,56.2,21.8,29.94,North,11,0.0,12.0,26,0.00,,---,0.00,VWS V13.01,2013-03-30 19:03:00,
2013-03-30 16:03:00,53.3,28.4,29.95,WNW,291,3.0,11.0,38,0.00,,---,0.00,VWS V13.01,2013-03-30 20:03:00,
2013-03-30 17:03:00,50.3,28.7,29.95,SE,126,3.0,12.0,43,0.00,,---,0.00,VWS V13.01,2013-03-30 21:03:00,
2013-03-30 18:03:00,48.8,28.4,29.97,SSE,164,3.0,10.0,45,0.00,,---,0.00,VWS V13.01,2013-03-30 22:03:00,
2013-03-30 19:03:00,44.3,30.0,29.99,South,175,0.0,11.0,57,0.00,,---,0.00,VWS V13.01,2013-03-30 23:03:00,
2013-03-30 20:03:00,39.7,30.0,30.01,South,175,0.0,2.0,68,0.00,,---,0.00,VWS V13.01,2013-03-31 00:03:00,
2013-03-30 21:03:00,35.3,29.1,30.03,South,175,0.0,1.0,78,0.00,,---,0.00,VWS V13.01,2013-03-31 01:03:00,
2013-03-30 22:03:00,32.9,28.6,30.05,South,175,0.0,0.0,84,0.00,,---,0.00,VWS V13.01,2013-03-31 02:03:00,
2013-03-30 23:03:00,31.0,24.6,30.05,South,175,0.0,0.0,77,0.00,,---,0.00,VWS V13.01,2013-03-31 03:03:00,